Station AUGA2 - Augustine Island, AK Image indicating link to RSS feed of recent meteorological observations for station AUGA2


Conditions at AUGA2 as of
(3:00 pm AKDT)
2300 GMT on 05/22/2024:
     

Click on the graph icon in the table below to see a time series plot of the last five days of that observation.

5-day plot - Wind Direction Wind Direction (WDIR): N ( 350 deg true )
5-day plot - Wind Speed Wind Speed (WSPD): 4 kts
5-day plot - Wind Gust Wind Gust (GST): 6 kts
5-day plot - Atmospheric Pressure Atmospheric Pressure (PRES):29.88 in
5-day plot - Pressure Tendency Pressure Tendency (PTDY):+0.04 in ( Rising )
5-day plot - Air Temperature Air Temperature (ATMP): 41.7 °F
5-day plot - Wind Chill Wind Chill (CHILL): 38.7 °F
5-day plot - Wind Speed at 10 Meters Wind Speed at 10 meters (WSPD10M): 4 kts
5-day plot - Wind Speed at 20 Meters Wind Speed at 20 meters (WSPD20M): 6 kts
5-day plot -  Wind Speed, Wind Gust and Atmospheric Pressure Combined plot of Wind Speed, Gust, and Air Pressure
Continuous Winds
TIME
(AKDT)
5-day plot - Wind Direction WDIR 5-day plot - Wind Speed WSPD
3:00 pmN ( 353 deg ) 5 kts
2:50 pmN ( 354 deg ) 8 kts
2:40 pmN ( 359 deg ) 8 kts
2:30 pmN ( 3 deg ) 7 kts
2:20 pmN ( 5 deg ) 7 kts
2:10 pmN ( 3 deg ) 7 kts
 
Peak gust during the measurement hour
TIME
(AKDT)
5-day plot - Gust Direction GDR 5-day plot - Gust Speed GST
2:38 pmN ( 360 deg ) 10 kts
Previous observations
TIME
(AKDT)
5-day plot - Wind Direction
WDIR
 
5-day plot - Wind Speed
WSPD
kts
5-day plot - Wind Gust
GST
kts
5-day plot - Wave Height
WVHT
ft
5-day plot - Dominant Wave Period
DPD
sec
5-day plot - Average Wave Period
APD
sec
5-day plot - Mean Wave Direction
MWD
 
5-day plot - Atmospheric Pressure
PRES
in
5-day plot - Pressure Tendency
PTDY
in
5-day plot - Air Temperature
ATMP
°F
5-day plot - Water Temperature
WTMP
°F
5-day plot - Dew Point
DEWP
°F
5-day plot - Salinity
SAL
psu
5-day plot - Visibility
VIS
nmi
5-day plot - Tide (above MLLW)
TIDE
ft
2024-05-22 02:30 pm N 8 9----29.87- 42.1-----
2024-05-22 02:00 pm N 6 8----29.86+0.04 41.7-----
2024-05-22 01:30 pm N 9 11----29.85- 41.0-----
2024-05-22 01:00 pm N 10 12----29.85+0.04 41.4-----
2024-05-22 12:30 pm N 10 12----29.84- 41.7-----
2024-05-22 12:00 pm N 11 13----29.83+0.03 42.4-----
2024-05-22 11:30 amNNE 6 7----29.83- 42.6-----
2024-05-22 11:00 amENE 4 5----29.83+0.03 42.4-----
2024-05-22 10:30 am NE 2 2----29.82- 42.1-----
2024-05-22 10:00 am NE 3 4----29.81+0.00 42.1-----
2024-05-22 09:30 amENE 1 2----29.80- 42.1-----
2024-05-22 09:00 am- 0 1----29.80+0.00 41.9-----
2024-05-22 08:30 am SE 5 7----29.80- 41.5-----
2024-05-22 08:00 am SE 6 8----29.80-0.01 41.2-----
2024-05-22 07:30 amESE 6 8----29.80- 40.8-----
2024-05-22 07:00 amESE 9 11----29.80-0.01 40.5-----
2024-05-22 06:30 amESE 10 13----29.80- 40.3-----
2024-05-22 06:00 am SE 10 12----29.80-0.01 40.1-----
2024-05-22 05:30 am SE 11 14----29.80- 40.1-----
2024-05-22 05:00 am SE 10 13----29.81+0.01 39.9-----
2024-05-22 04:30 amESE 13 16----29.81- 40.1-----
2024-05-22 04:00 am SE 15 18----29.81+0.01 40.5-----
2024-05-22 03:30 am SE 18 21----29.80- 41.0-----
2024-05-22 03:00 am SE 21 26----29.81+0.00 41.5-----
2024-05-22 02:30 am SE 27 33----29.80- 41.7-----
2024-05-22 02:00 am SE 30 34----29.79-0.04 41.9-----
2024-05-22 01:30 am SE 21 24----29.81- 42.1-----
2024-05-22 01:00 amESE 24 30----29.80-0.03 42.6-----
2024-05-22 12:30 amESE 23 26----29.82- 42.3-----
2024-05-22 12:00 amESE 27 31----29.81-0.05 42.4-----
2024-05-21 11:30 pm SE 22 29----29.82- 42.3-----
2024-05-21 11:00 pm SE 20 24----29.84-0.03 42.1-----
2024-05-21 10:30 pm SE 20 23----29.84- 42.3-----
2024-05-21 10:00 pm SE 22 27----29.84-0.03 42.1-----
2024-05-21 09:30 pmESE 12 15----29.86- 41.0-----
2024-05-21 09:00 pm E 12 16----29.86+0.02 40.5-----
2024-05-21 08:30 pm E 13 16----29.87- 40.3-----
2024-05-21 08:00 pmENE 16 19----29.86+0.01 39.9-----
2024-05-21 07:30 pm E 13 17----29.87- 40.1-----
2024-05-21 07:00 pm E 16 24----29.87+0.00 40.5-----
2024-05-21 06:30 pm E 16 21----29.86- 41.5-----
2024-05-21 06:00 pmESE 23 29----29.84-0.04 42.4-----
2024-05-21 05:30 pmESE 24 28----29.85- 42.1-----
2024-05-21 05:00 pmESE 22 29----29.85-0.03 42.1-----
2024-05-21 04:30 pmESE 21 27----29.86- 42.1-----
2024-05-21 04:00 pmESE 22 28----29.87-0.01 41.9-----
2024-05-21 03:30 pmESE 27 31----29.85- 41.7-----
2024-05-21 03:00 pm E 18 24----29.88-0.01 41.5-----